Zurück zum Katalog

STARLINK-6238

AktivKommunikationVLEO
NORAD 56428·PAYLOAD·🇺🇸 United States

Gestartet May 4, 2023 von Cape Canaveral Space Force Station

Loading…

Nächste Überflüge (nächste 24 Stunden)

TLE

AktuellSource: CelesTrak SupGP

Epoche: Sep 14, 2026, 22:01 UTC

1 56428C 23061BG  26257.91784722 -.00031111  00000+0 -11265-2 0  2571
2 56428  43.0001 191.1267 0001307 260.3638 218.2836 15.27605041    13

Verfolge STARLINK-6238 in Echtzeit mit AllMySat

Download on the App Store